Weather History for Pittsfield, MA

Change the Weather History Date:

Sunday, December 23, 2012

  Actual Average Record
Temperature  
Mean Temperature 29 °F 24 °F  
Max Temperature 33 °F 32 °F 57 °F (1949)
Min Temperature 25 °F 17 °F -9 °F (1960)
Degree Days  
Heating Degree Days 36 41  
Month to date heating degree days 705 850  
Since 1 July heating degree days 2212 2501  
Cooling Degree Days 0 0  
Month to date cooling degree days 0 0  
Year to date cooling degree days 465 290  
Moisture  
Dew Point 20 °F    
Average Humidity 63    
Maximum Humidity 75    
Minimum Humidity 51    
Precipitation  
Precipitation T in 0.10 in 1.16 in (2004)
Month to date precipitation 3.08 2.25  
Year to date precipitation 35.59 44.63  
Sea Level Pressure  
Sea Level Pressure 29.80 in    
Wind  
Wind Speed 10 mph (West)    
Max Wind Speed 29 mph    
Max Gust Speed 46 mph    
Visibility 10 miles    
Events Snow    
T = Trace of Precipitation, MM = Missing Value Source: NWS Daily Summary

Daily Weather History Graph

Daily Weather History Graph

Search for Another Location

Airport:

Trip Planner

Search our weather history database for the weather conditions in past years. The results will help you decide how hot, cold, wet, or windy it might be!

Date:

Astronomy

Dec. 23, 2012 Rise Set
Actual Time 7:20 AM EST 4:24 PM EST
Civil Twilight 6:48 AM EST 4:56 PM EST
Nautical Twilight 6:12 AM EST 5:32 PM EST
Astronomical Twilight 5:38 AM EST 6:06 PM EST
Moon 1:16 PM EST (12/23) 2:57 AM EST (12/23)
Length of Visible Light 10h 08m
Length of Day
9h 04m
Waxing Gibbous, 81% of the Moon is Illuminated
Dec 23
Waxing Gibbous
Dec 28
Full
Jan 4
Last Quarter
Jan 11
New
Jan 18
First Quarter

Hourly Weather History & Observations

Time (EST) Temp. Windchill Dew Point Humidity Pressure Visibility Wind Dir Wind Speed Gust Speed Precip Events Conditions
12:54 AM 27.0 °F 16.1 °F 19.9 °F 75% 29.73 in 10.0 mi NW 12.7 mph 23.0 mph 0.00 in   Overcast
1:46 AM 28.4 °F 17.0 °F 19.4 °F 69% 29.70 in 10.0 mi NW 15.0 mph 31.1 mph N/A   Overcast
1:54 AM 27.0 °F 14.7 °F 19.0 °F 72% 29.75 in 10.0 mi WNW 16.1 mph 31.1 mph N/A   Overcast
2:54 AM 27.0 °F 12.5 °F 17.1 °F 66% 29.76 in 10.0 mi WNW 23.0 mph 35.7 mph N/A   Scattered Clouds
3:51 AM 26.6 °F 15.2 °F 17.6 °F 69% 29.74 in 10.0 mi WNW 13.8 mph 28.8 mph N/A   Mostly Cloudy
3:54 AM 26.1 °F 13.6 °F 18.0 °F 71% 29.79 in 10.0 mi WNW 16.1 mph 27.6 mph N/A   Mostly Cloudy
4:26 AM 26.6 °F 16.2 °F 17.6 °F 69% 29.75 in 10.0 mi WNW 11.5 mph 25.3 mph N/A   Overcast
4:54 AM 26.1 °F 14.5 °F 18.0 °F 71% 29.81 in 10.0 mi WNW 13.8 mph - N/A   Overcast
5:03 AM 26.6 °F 14.3 °F 17.6 °F 69% 29.76 in 10.0 mi West 16.1 mph 24.2 mph N/A   Overcast
5:33 AM 26.6 °F 14.7 °F 17.6 °F 69% 29.78 in 10.0 mi West 15.0 mph 23.0 mph N/A   Mostly Cloudy
5:54 AM 25.0 °F 13.1 °F 18.0 °F 75% 29.83 in 10.0 mi WNW 13.8 mph 24.2 mph N/A   Overcast
6:54 AM 25.0 °F 14.8 °F 18.0 °F 75% 29.84 in 10.0 mi WNW 10.4 mph - N/A   Overcast
7:54 AM 26.1 °F 15.0 °F 18.0 °F 71% 29.84 in 10.0 mi WNW 12.7 mph - N/A   Overcast
8:54 AM 26.1 °F 15.0 °F 19.0 °F 75% 29.85 in 10.0 mi West 12.7 mph - N/A   Overcast
9:41 AM 26.6 °F 18.2 °F 19.4 °F 74% 29.81 in 2.5 mi West 8.1 mph 17.3 mph 0.00 in Snow Light Snow
9:54 AM 26.1 °F 16.8 °F 19.9 °F 78% 29.86 in 3.0 mi West 9.2 mph - 0.00 in Snow Light Snow
10:50 AM 26.6 °F 21.2 °F 21.2 °F 80% 29.81 in 10.0 mi West 4.6 mph - 0.00 in   Overcast
10:54 AM 27.0 °F 20.5 °F 21.0 °F 78% 29.85 in 10.0 mi West 5.8 mph - 0.00 in   Overcast
11:54 AM 28.0 °F 21.7 °F 21.9 °F 78% 29.82 in 10.0 mi WSW 5.8 mph - N/A   Overcast
12:54 PM 30.0 °F 23.2 °F 23.0 °F 75% 29.79 in 10.0 mi WSW 6.9 mph - N/A   Overcast
1:54 PM 32.0 °F 27.5 °F 23.0 °F 69% 29.78 in 10.0 mi SW 4.6 mph - N/A   Overcast
2:54 PM 33.1 °F 27.7 °F 21.9 °F 64% 29.77 in 10.0 mi SW 5.8 mph - N/A   Overcast
3:54 PM 33.1 °F - 23.0 °F 66% 29.78 in 10.0 mi Calm Calm - N/A   Overcast
4:54 PM 32.0 °F - 23.0 °F 69% 29.79 in 10.0 mi Calm Calm - N/A   Overcast
5:54 PM 30.9 °F 27.5 °F 23.0 °F 72% 29.81 in 10.0 mi WSW 3.5 mph - N/A   Overcast
6:54 PM 30.9 °F 23.5 °F 21.9 °F 69% 29.82 in 10.0 mi WSW 8.1 mph - N/A   Overcast
7:54 PM 32.0 °F 24.8 °F 18.0 °F 56% 29.82 in 10.0 mi West 8.1 mph - N/A   Overcast
8:54 PM 33.1 °F 24.4 °F 18.0 °F 54% 29.83 in 10.0 mi WSW 11.5 mph 21.9 mph N/A   Overcast
9:54 PM 32.0 °F 22.5 °F 18.0 °F 56% 29.85 in 10.0 mi West 12.7 mph - N/A   Overcast
10:54 PM 30.0 °F 21.1 °F 18.0 °F 61% 29.85 in 10.0 mi WSW 10.4 mph - N/A   Partly Cloudy
11:54 PM 30.9 °F 22.2 °F 18.0 °F 59% 29.86 in 10.0 mi WSW 10.4 mph - N/A   Overcast